Hourly Weather Kistenevo

Today, 22 October, Thursday

Time Temperature Precipitation Wind Pressure Humidity
00:00 +1°C° 0 mm 2 mps 751 mmHg 94%
01:00 +2°C° 0 mm 1 mps 751 mmHg 94%
02:00 +2°C° 0 mm 1 mps 751 mmHg 94%
03:00 +2°C° 0 mm 1 mps 751 mmHg 94%
04:00 +2°C° 0 mm 1 mps 750 mmHg 94%
05:00 +1°C° 0 mm 2 mps 750 mmHg 95%
06:00 +1°C° 0 mm 2 mps 750 mmHg 95%
07:00 +2°C° 0 mm 2 mps 750 mmHg 94%
08:00 +2°C° 0 mm 2 mps 750 mmHg 93%
09:00 +3°C° 0 mm 2 mps 750 mmHg 91%
10:00 +2°C° 0 mm 3 mps 750 mmHg 89%
11:00 +3°C° 0 mm 3 mps 750 mmHg 87%
12:00 +3°C° 0 mm 3 mps 750 mmHg 85%
13:00 +4°C° 0 mm 3 mps 750 mmHg 83%
14:00 +4°C° 0 mm 3 mps 750 mmHg 80%
15:00 +5°C° 0 mm 3 mps 750 mmHg 78%
16:00 +5°C° 0 mm 3 mps 749 mmHg 80%
17:00 +4°C° 0 mm 4 mps 748 mmHg 83%
18:00 +4°C° 0 mm 4 mps 748 mmHg 85%
19:00 +4°C° 0.1 mm 4 mps 747 mmHg 86%
20:00 +4°C° 0.1 mm 4 mps 747 mmHg 86%
21:00 +4°C° 0.1 mm 4 mps 746 mmHg 87%
22:00 +3°C° 0.5 mm 5 mps 746 mmHg 88%
23:00 +5°C° 0.5 mm 5 mps 745 mmHg 89%

Tomorrow, 23 October, Friday

Time Temperature Precipitation Wind Pressure Humidity
00:00 +5°C° 0.5 mm 5 mps 744 mmHg 91%
01:00 +5°C° 0.1 mm 5 mps 743 mmHg 91%
02:00 +6°C° 0.1 mm 5 mps 743 mmHg 91%
03:00 +6°C° 0.1 mm 5 mps 742 mmHg 90%
04:00 +6°C° 0.1 mm 5 mps 742 mmHg 89%
05:00 +6°C° 0.1 mm 5 mps 741 mmHg 88%
06:00 +6°C° 0.1 mm 5 mps 740 mmHg 87%
07:00 +7°C° 0.2 mm 5 mps 740 mmHg 88%
08:00 +8°C° 0.2 mm 6 mps 740 mmHg 89%
09:00 +9°C° 0.2 mm 6 mps 740 mmHg 90%
10:00 +9°C° 0 mm 6 mps 741 mmHg 85%
11:00 +10°C° 0 mm 6 mps 741 mmHg 81%
12:00 +11°C° 0 mm 6 mps 741 mmHg 77%
13:00 +11°C° 0 mm 6 mps 741 mmHg 76%
14:00 +11°C° 0 mm 6 mps 741 mmHg 76%
15:00 +13°C° 0 mm 6 mps 742 mmHg 75%
16:00 +11°C° 0 mm 6 mps 742 mmHg 77%
17:00 +10°C° 0 mm 5 mps 742 mmHg 79%
18:00 +10°C° 0 mm 4 mps 742 mmHg 82%
19:00 +10°C° 0 mm 4 mps 741 mmHg 84%
20:00 +10°C° 0 mm 4 mps 741 mmHg 86%
21:00 +10°C° 0 mm 4 mps 741 mmHg 88%
22:00 +10°C° 0.8 mm 4 mps 740 mmHg 90%
23:00 +9°C° 0.8 mm 5 mps 739 mmHg 92%

Day after tomorrow, 24 October, Saturday

Time Temperature Precipitation Wind Pressure Humidity
00:00 +10°C° 0.8 mm 5 mps 738 mmHg 93%
01:00 +10°C° 0.5 mm 6 mps 738 mmHg 92%
02:00 +10°C° 0.5 mm 6 mps 738 mmHg 90%
03:00 +10°C° 0.5 mm 6 mps 738 mmHg 88%
04:00 +10°C° 0 mm 6 mps 738 mmHg 89%
05:00 +9°C° 0 mm 6 mps 739 mmHg 90%
06:00 +8°C° 0 mm 6 mps 739 mmHg 90%
07:00 +8°C° 0 mm 6 mps 739 mmHg 88%
08:00 +9°C° 0 mm 6 mps 740 mmHg 86%
09:00 +9°C° 0 mm 6 mps 741 mmHg 83%
10:00 +9°C° 0 mm 5 mps 741 mmHg 81%
11:00 +9°C° 0 mm 5 mps 742 mmHg 78%
12:00 +10°C° 0 mm 4 mps 742 mmHg 75%
13:00 +10°C° 0 mm 4 mps 743 mmHg 74%
14:00 +11°C° 0 mm 3 mps 743 mmHg 73%
15:00 +11°C° 0 mm 3 mps 743 mmHg 72%
16:00 +10°C° 0 mm 3 mps 743 mmHg 75%
17:00 +10°C° 0 mm 2 mps 743 mmHg 79%
18:00 +9°C° 0 mm 2 mps 743 mmHg 83%
19:00 +9°C° 0 mm 2 mps 744 mmHg 82%
20:00 +9°C° 0 mm 2 mps 744 mmHg 82%
21:00 +9°C° 0 mm 2 mps 744 mmHg 82%
22:00 +8°C° 0 mm 2 mps 744 mmHg 83%
23:00 +8°C° 0 mm 2 mps 744 mmHg 84%

, 25 October, Sunday

Time Temperature Precipitation Wind Pressure Humidity
00:00 +8°C° 0 mm 2 mps 744 mmHg 86%
01:00 +7°C° 0 mm 2 mps 743 mmHg 86%
02:00 +7°C° 0 mm 2 mps 743 mmHg 87%
03:00 +7°C° 0 mm 2 mps 743 mmHg 87%
04:00 +7°C° 0 mm 2 mps 743 mmHg 88%
05:00 +7°C° 0 mm 2 mps 743 mmHg 89%
06:00 +7°C° 0 mm 2 mps 742 mmHg 89%
07:00 +8°C° 0.2 mm 1 mps 742 mmHg 90%
08:00 +8°C° 0.2 mm 1 mps 742 mmHg 91%
09:00 +8°C° 0.2 mm 1 mps 741 mmHg 92%
10:00 +8°C° 0.7 mm 1 mps 741 mmHg 93%
11:00 +8°C° 0.7 mm 1 mps 741 mmHg 94%
12:00 +8°C° 0.7 mm 1 mps 741 mmHg 95%
13:00 +7°C° 0.4 mm 2 mps 741 mmHg 93%
14:00 +7°C° 0.4 mm 2 mps 741 mmHg 92%
15:00 +7°C° 0.4 mm 3 mps 741 mmHg 91%
16:00 +6°C° 0.2 mm 4 mps 742 mmHg 90%
17:00 +6°C° 0.2 mm 4 mps 742 mmHg 89%
18:00 +6°C° 0.2 mm 5 mps 743 mmHg 89%
19:00 +6°C° 0 mm 5 mps 743 mmHg 89%
20:00 +6°C° 0 mm 4 mps 744 mmHg 89%
21:00 +5°C° 0 mm 4 mps 744 mmHg 89%
22:00 +5°C° 0 mm 4 mps 745 mmHg 89%
23:00 +4°C° 0 mm 4 mps 746 mmHg 90%

25 October, Sunday

Time Temperature Precipitation Wind Pressure Humidity
00:00 +8°C° 0 mm 2 mps 744 mmHg 86%
01:00 +7°C° 0 mm 2 mps 743 mmHg 86%
02:00 +7°C° 0 mm 2 mps 743 mmHg 87%
03:00 +7°C° 0 mm 2 mps 743 mmHg 87%
04:00 +7°C° 0 mm 2 mps 743 mmHg 88%
05:00 +7°C° 0 mm 2 mps 743 mmHg 89%
06:00 +7°C° 0 mm 2 mps 742 mmHg 89%
07:00 +8°C° 0.2 mm 1 mps 742 mmHg 90%
08:00 +8°C° 0.2 mm 1 mps 742 mmHg 91%
09:00 +8°C° 0.2 mm 1 mps 741 mmHg 92%
10:00 +8°C° 0.7 mm 1 mps 741 mmHg 93%
11:00 +8°C° 0.7 mm 1 mps 741 mmHg 94%
12:00 +8°C° 0.7 mm 1 mps 741 mmHg 95%
13:00 +7°C° 0.4 mm 2 mps 741 mmHg 93%
14:00 +7°C° 0.4 mm 2 mps 741 mmHg 92%
15:00 +7°C° 0.4 mm 3 mps 741 mmHg 91%
16:00 +6°C° 0.2 mm 4 mps 742 mmHg 90%
17:00 +6°C° 0.2 mm 4 mps 742 mmHg 89%
18:00 +6°C° 0.2 mm 5 mps 743 mmHg 89%
19:00 +6°C° 0 mm 5 mps 743 mmHg 89%
20:00 +6°C° 0 mm 4 mps 744 mmHg 89%
21:00 +5°C° 0 mm 4 mps 744 mmHg 89%
22:00 +5°C° 0 mm 4 mps 745 mmHg 89%
23:00 +4°C° 0 mm 4 mps 746 mmHg 90%

26 October, Monday

Time Temperature Precipitation Wind Pressure Humidity
00:00 +4°C° 0 mm 4 mps 746 mmHg 90%
01:00 +3°C° 0 mm 3 mps 747 mmHg 90%
02:00 +2°C° 0 mm 3 mps 747 mmHg 90%
03:00 +2°C° 0 mm 3 mps 748 mmHg 90%
04:00 +2°C° 0 mm 3 mps 748 mmHg 91%
05:00 +1°C° 0 mm 3 mps 749 mmHg 91%
06:00 +1°C° 0 mm 3 mps 749 mmHg 91%
07:00 +3°C° 0 mm 2 mps 750 mmHg 88%
08:00 +3°C° 0 mm 2 mps 751 mmHg 85%
09:00 +4°C° 0 mm 2 mps 751 mmHg 81%
10:00 +5°C° 0 mm 2 mps 752 mmHg 76%
11:00 +6°C° 0 mm 2 mps 752 mmHg 71%
12:00 +7°C° 0 mm 2 mps 752 mmHg 66%
13:00 +7°C° 0 mm 2 mps 753 mmHg 67%
14:00 +8°C° 0 mm 2 mps 753 mmHg 67%
15:00 +8°C° 0 mm 2 mps 753 mmHg 68%
16:00 +7°C° 0 mm 2 mps 753 mmHg 74%
17:00 +7°C° 0 mm 1 mps 754 mmHg 79%
18:00 +6°C° 0 mm 1 mps 754 mmHg 84%
19:00 +6°C° 0 mm 1 mps 754 mmHg 86%
20:00 +5°C° 0 mm 1 mps 754 mmHg 87%
21:00 +5°C° 0 mm 1 mps 755 mmHg 89%
22:00 +5°C° 0 mm 1 mps 755 mmHg 89%
23:00 +4°C° 0 mm 1 mps 755 mmHg 90%

27 October, Tuesday

Time Temperature Precipitation Wind Pressure Humidity
00:00 +4°C° 0 mm 1 mps 755 mmHg 91%
01:00 +4°C° 0 mm 1 mps 755 mmHg 91%
02:00 +4°C° 0 mm 1 mps 755 mmHg 91%
03:00 +4°C° 0 mm 1 mps 756 mmHg 91%
04:00 +2°C° 0 mm 0 mps 756 mmHg 91%
05:00 +2°C° 0 mm 0 mps 756 mmHg 92%
06:00 +2°C° 0 mm 0 mps 756 mmHg 92%
07:00 +3°C° 0 mm 0 mps 756 mmHg 90%
08:00 +3°C° 0 mm 0 mps 756 mmHg 88%
09:00 +4°C° 0 mm 0 mps 757 mmHg 86%
10:00 +6°C° 0 mm 1 mps 757 mmHg 81%
11:00 +7°C° 0 mm 1 mps 757 mmHg 76%
12:00 +9°C° 0 mm 1 mps 757 mmHg 71%
13:00 +9°C° 0 mm 1 mps 757 mmHg 70%
14:00 +9°C° 0 mm 1 mps 757 mmHg 69%
15:00 +9°C° 0 mm 1 mps 757 mmHg 67%
16:00 +8°C° 0 mm 1 mps 757 mmHg 73%
17:00 +7°C° 0 mm 1 mps 757 mmHg 78%
18:00 +6°C° 0 mm 1 mps 757 mmHg 84%
19:00 +6°C° 0 mm 1 mps 757 mmHg 86%
20:00 +5°C° 0 mm 2 mps 757 mmHg 87%
21:00 +4°C° 0 mm 2 mps 757 mmHg 89%
22:00 +4°C° 0 mm 2 mps 757 mmHg 90%
23:00 +4°C° 0 mm 2 mps 757 mmHg 91%
Show more